Flag for U.S.A. Weather past 2 weeks in Fairfax, Virginia, U.S.A.

Now
33 °F

Overcast.


Feels Like: 25 °F
Forecast: 22 / 37 °F
Wind: 10 mph from South

Location: Washington-Dulles International Airport

Current Time: Mar 3, 2015 at 6:08:03 PM

Latest Report: Mar 3, 2015 at 4:52 PM


Visibility: 10 mi

Pressure: 30.10 "Hg

Humidity: 54%

Dew point: 18 °F

Location of FairfaxLocation

Historic Weather in Fairfax — Graph

°F

Fairfax temperature yesterday

Maximum temperature yesterday: 41 °F (at 2:52 PM)
Minimum temperature yesterday: 27 °F (at 11:52 PM)
Average temperature yesterday: 35 °F

Past Weeks' High & Low Weather Summary

 TemperatureHumidityPressure
High46 °F (Feb 22, 2:52 PM)96% (Mar 1, 11:52 PM)30.88 "Hg (Mar 1, 11:52 PM)
Low-2 °F (Feb 24, 5:52 AM)24% (Feb 28, 2:52 PM)29.72 "Hg (Feb 18, 4:52 PM)
Average23 °F60%30.23 "Hg
* Reported Feb 16 3:52 PM — Mar 3 3:52 PM, Fairfax, Weather by CustomWeather, © 2015

Note: Actual official high and low records may vary slightly from our data, if they occured in-between our weather recording intervals... More about our weather records

Advertising

Fairfax weather history for previous 24 hours

 ConditionsComfort  
Time TempWeatherWind HumidityBarometerVisibility
3:52 PM
Tue, Mar 3
33 °FOvercast.12 mph52%30.14 "Hg10 mi
2:52 PM32 °FOvercast.7 mph56%30.20 "Hg10 mi
1:52 PM31 °FOvercast.9 mph59%30.23 "Hg10 mi
12:52 PM31 °FOvercast.13 mph57%30.30 "Hg10 mi
12:03 PM30 °FLight freezing rain. More clouds than sun.13 mph55%30.32 "Hg10 mi
11:52 AM31 °FLight snow. Overcast.12 mph52%30.34 "Hg10 mi
10:52 AM32 °FMostly cloudy.10 mph47%30.37 "Hg10 mi
9:52 AM31 °FPartly sunny.8 mph49%30.41 "Hg10 mi
8:52 AM30 °FMostly cloudy.6 mph51%30.43 "Hg10 mi
7:52 AM28 °FMore clouds than sun.No wind61%30.45 "Hg10 mi
6:52 AM26 °FScattered clouds.No wind63%30.42 "Hg10 mi
5:52 AM26 °FOvercast.5 mph66%30.43 "Hg10 mi
4:52 AM27 °FMostly cloudy.5 mph61%30.41 "Hg10 mi
3:52 AM26 °FMostly cloudy.5 mph63%30.41 "Hg10 mi
2:52 AM28 °FMostly cloudy.5 mph58%30.41 "Hg10 mi
1:52 AM26 °FPassing clouds.5 mph63%30.41 "Hg10 mi
12:52 AM28 °FPassing clouds.5 mph56%30.42 "Hg10 mi
11:52 PM
Mon, Mar 2
27 °FPassing clouds.3 mph61%30.43 "Hg10 mi
10:52 PM30 °FPassing clouds.7 mph51%30.43 "Hg10 mi
9:52 PM31 °FPassing clouds.5 mph52%30.42 "Hg10 mi
8:52 PM32 °FPassing clouds.6 mph50%30.42 "Hg10 mi
7:52 PM34 °FPassing clouds.7 mph48%30.40 "Hg10 mi
6:52 PM34 °FPassing clouds.7 mph50%30.38 "Hg10 mi
Weather by CustomWeather, © 2015

See weather overviewHow to use our weather pages